Change the Weather History Date:

Sunday, September 1, 2013

  Actual Average (KAQP) Record (KAQP)
Temperature  
Mean Temperature 62 °F -  
Max Temperature 71 °F 77 °F 91 °F (2011)
Min Temperature 53 °F 54 °F 48 °F (2005)
Degree Days  
Heating Degree Days 3    
Growing Degree Days 12 (Base 50)    
Moisture  
Dew Point 57 °F    
Average Humidity 76    
Maximum Humidity 94    
Minimum Humidity 60    
Precipitation  
Precipitation 0.00 in - - ()
Sea Level Pressure  
Sea Level Pressure 29.96 in    
Wind  
Wind Speed 9 mph (NNW)    
Max Wind Speed 18 mph    
Max Gust Speed 24 mph    
Visibility 10 miles    
Events      
Averages and records for this station are not official NWS values.
T = Trace of Precipitation, MM = Missing Value Source: NWS Daily Summary

Daily Weather History Graph

Daily Weather History Graph

Search for Another Location

Airport or City:

Trip Planner

Search our weather history database for the weather conditions in past years. The results will help you decide how hot, cold, wet, or windy it might be!

Date:

Astronomy

Sep. 01, 2013 Rise Set
Actual Time 6:47 AM CDT 8:01 PM CDT
Civil Twilight 6:16 AM CDT 8:31 PM CDT
Nautical Twilight 5:40 AM CDT 9:07 PM CDT
Astronomical Twilight 5:01 AM CDT 9:46 PM CDT
Moon 3:03 AM CDT (9/1) 5:44 PM CDT (9/1)
Length of Visible Light 14h 14m
Length of Day
13h 14m
Waning Crescent, 13% of the Moon is Illuminated
Sep 1
Waning Crescent
Sep 5
New
Sep 12
First Quarter
Sep 19
Full
Sep 26
Last Quarter

Hourly Weather History & Observations

Time (CDT) Temp. Dew Point Humidity Pressure Visibility Wind Dir Wind Speed Gust Speed Precip Events Conditions
12:14 AM 71.6 °F 62.6 °F 73% 29.86 in 10.0 mi WNW 6.9 mph - N/A   Clear
12:33 AM 71.6 °F 62.6 °F 73% 29.86 in 10.0 mi NW 9.2 mph - N/A   Scattered Clouds
12:53 AM 69.8 °F 60.8 °F 73% 29.86 in 10.0 mi NW 9.2 mph - N/A   Scattered Clouds
1:14 AM 68.0 °F 60.8 °F 78% 29.86 in 10.0 mi NW 8.1 mph - N/A   Clear
1:33 AM 66.2 °F 60.8 °F 83% 29.86 in 10.0 mi NW 6.9 mph - N/A   Clear
1:53 AM 66.2 °F 60.8 °F 83% 29.86 in 10.0 mi NW 6.9 mph - N/A   Clear
2:14 AM 64.4 °F 60.8 °F 88% 29.86 in 10.0 mi NW 6.9 mph - N/A   Clear
2:33 AM 64.4 °F 59.0 °F 83% 29.86 in 10.0 mi NW 8.1 mph - N/A   Clear
2:53 AM 64.4 °F 59.0 °F 83% 29.85 in 10.0 mi NW 9.2 mph - N/A   Clear
3:14 AM 64.4 °F 57.2 °F 77% 29.85 in 10.0 mi WNW 6.9 mph - N/A   Clear
3:33 AM 62.6 °F 57.2 °F 82% 29.86 in 10.0 mi NW 5.8 mph - N/A   Clear
3:53 AM 62.6 °F 57.2 °F 82% 29.87 in 10.0 mi NW 6.9 mph - N/A   Clear
4:14 AM 62.6 °F 57.2 °F 82% 29.87 in 10.0 mi NW 8.1 mph - N/A   Clear
4:33 AM 62.6 °F 57.2 °F 82% 29.87 in 10.0 mi NW 6.9 mph - N/A   Clear
4:53 AM 62.6 °F 57.2 °F 82% 29.87 in 10.0 mi NW 5.8 mph - N/A   Clear
5:14 AM 62.6 °F 57.2 °F 82% 29.88 in 10.0 mi WNW 5.8 mph - N/A   Clear
5:34 AM 60.8 °F 57.2 °F 88% 29.89 in 10.0 mi NW 6.9 mph - N/A   Clear
5:53 AM 60.8 °F 57.2 °F 88% 29.89 in 10.0 mi NW 6.9 mph - N/A   Clear
6:14 AM 62.6 °F 55.4 °F 77% 29.90 in 10.0 mi WNW 6.9 mph - N/A   Clear
6:34 AM 60.8 °F 55.4 °F 82% 29.90 in 10.0 mi WNW 6.9 mph - N/A   Clear
6:53 AM 60.8 °F 55.4 °F 82% 29.91 in 10.0 mi NW 9.2 mph - N/A   Clear
7:13 AM 60.8 °F 55.4 °F 82% 29.91 in 10.0 mi NW 11.5 mph - N/A   Clear
7:34 AM 62.6 °F 57.2 °F 82% 29.92 in 10.0 mi NW 9.2 mph - N/A   Clear
7:54 AM 62.6 °F 57.2 °F 82% 29.93 in 10.0 mi NW 10.4 mph - N/A   Clear
8:13 AM 64.4 °F 59.0 °F 83% 29.94 in 10.0 mi NW 10.4 mph - N/A   Scattered Clouds
8:34 AM 64.4 °F 60.8 °F 88% 29.94 in 10.0 mi NW 10.4 mph - N/A   Scattered Clouds
8:54 AM 66.2 °F 60.8 °F 83% 29.94 in 10.0 mi NW 12.7 mph - N/A   Clear
9:13 AM 66.2 °F 60.8 °F 83% 29.95 in 10.0 mi NNW 15.0 mph - N/A   Clear
9:34 AM 69.8 °F 60.8 °F 73% 29.95 in 10.0 mi North 13.8 mph - N/A   Clear
9:54 AM 69.8 °F 60.8 °F 73% 29.95 in 10.0 mi NNW 11.5 mph - N/A   Scattered Clouds
10:13 AM 68.0 °F 59.0 °F 73% 29.96 in 10.0 mi NW 12.7 mph - N/A   Clear
10:34 AM 68.0 °F 60.8 °F 78% 29.97 in 10.0 mi NNW 11.5 mph - N/A   Clear
10:54 AM 68.0 °F 59.0 °F 73% 29.97 in 10.0 mi NNW 15.0 mph - N/A   Scattered Clouds
11:13 AM 68.0 °F 59.0 °F 73% 29.98 in 10.0 mi NNW 13.8 mph - N/A   Clear
11:34 AM 68.0 °F 59.0 °F 73% 29.99 in 10.0 mi NW 16.1 mph 19.6 mph N/A   Scattered Clouds
11:54 AM 68.0 °F 59.0 °F 73% 29.99 in 10.0 mi NNW 13.8 mph - N/A   Clear
12:13 PM 69.8 °F 59.0 °F 68% 30.00 in 10.0 mi NNW 10.4 mph 18.4 mph N/A   Clear
12:34 PM 69.8 °F 59.0 °F 68% 30.00 in 10.0 mi NNW 12.7 mph - N/A   Scattered Clouds
12:53 PM 69.8 °F 59.0 °F 68% 30.00 in 10.0 mi NNW 16.1 mph - N/A   Scattered Clouds
1:13 PM 69.8 °F 59.0 °F 68% 30.00 in 10.0 mi NW 13.8 mph 23.0 mph N/A   Clear
1:33 PM 68.0 °F 59.0 °F 73% 30.01 in 10.0 mi NNW 12.7 mph 24.2 mph N/A   Scattered Clouds
1:53 PM 69.8 °F 59.0 °F 68% 30.00 in 10.0 mi NW 18.4 mph - N/A   Scattered Clouds
2:14 PM 69.8 °F 59.0 °F 68% 30.00 in 10.0 mi NW 15.0 mph - N/A   Scattered Clouds
2:33 PM 69.8 °F 57.2 °F 64% 30.00 in 10.0 mi NNW 13.8 mph 18.4 mph N/A   Scattered Clouds
2:53 PM 69.8 °F 57.2 °F 64% 30.00 in 10.0 mi NW 16.1 mph 20.7 mph N/A   Scattered Clouds
3:14 PM 69.8 °F 57.2 °F 64% 30.00 in 10.0 mi NNW 18.4 mph 23.0 mph N/A   Scattered Clouds
3:33 PM 71.6 °F 57.2 °F 60% 30.00 in 10.0 mi NNW 15.0 mph 20.7 mph N/A   Clear
3:53 PM 69.8 °F 57.2 °F 64% 29.99 in 10.0 mi North 13.8 mph 20.7 mph N/A   Clear
4:14 PM 69.8 °F 57.2 °F 64% 29.99 in 10.0 mi NNW 15.0 mph - N/A   Scattered Clouds
4:33 PM 69.8 °F 57.2 °F 64% 30.00 in 10.0 mi NNW 16.1 mph 20.7 mph N/A   Scattered Clouds
4:53 PM 69.8 °F 57.2 °F 64% 29.99 in 10.0 mi North 12.7 mph - N/A   Scattered Clouds
5:14 PM 69.8 °F 57.2 °F 64% 29.99 in 10.0 mi North 15.0 mph 20.7 mph N/A   Scattered Clouds
5:33 PM 69.8 °F 57.2 °F 64% 30.00 in 10.0 mi NNW 16.1 mph 19.6 mph N/A   Scattered Clouds
5:53 PM 69.8 °F 57.2 °F 64% 30.00 in 10.0 mi North 12.7 mph 17.3 mph N/A   Scattered Clouds
6:13 PM 69.8 °F 57.2 °F 64% 30.00 in 10.0 mi North 16.1 mph 20.7 mph N/A   Mostly Cloudy
6:33 PM 69.8 °F 57.2 °F 64% 30.01 in 10.0 mi North 12.7 mph 19.6 mph N/A   Scattered Clouds
6:54 PM 68.0 °F 57.2 °F 68% 30.00 in 10.0 mi North 13.8 mph - N/A   Scattered Clouds
7:13 PM 66.2 °F 55.4 °F 68% 30.00 in 10.0 mi North 10.4 mph - N/A   Clear
7:33 PM 66.2 °F 57.2 °F 73% 30.01 in 10.0 mi North 5.8 mph - N/A   Clear
7:54 PM 64.4 °F 57.2 °F 77% 30.02 in 10.0 mi North 4.6 mph - N/A   Clear
8:13 PM 60.8 °F 55.4 °F 82% 30.02 in 10.0 mi NNE 5.8 mph - N/A   Clear
8:33 PM 60.8 °F 55.4 °F 82% 30.02 in 10.0 mi NNE 3.5 mph - N/A   Clear
8:54 PM 59.0 °F 53.6 °F 82% 30.04 in 10.0 mi North 5.8 mph - N/A   Clear
9:13 PM 59.0 °F 53.6 °F 82% 30.04 in 10.0 mi North 4.6 mph - N/A   Clear
9:33 PM 59.0 °F 53.6 °F 82% 30.04 in 10.0 mi North 3.5 mph - N/A   Clear
9:54 PM 59.0 °F 53.6 °F 82% 30.04 in 7.0 mi North 3.5 mph - N/A   Clear
10:13 PM 57.2 °F 53.6 °F 88% 30.05 in 10.0 mi NNW 4.6 mph - N/A   Clear
10:33 PM 55.4 °F 51.8 °F 88% 30.05 in 10.0 mi NW 4.6 mph - N/A   Clear
10:54 PM 57.2 °F 53.6 °F 88% 30.05 in 10.0 mi NW 4.6 mph - N/A   Clear
11:13 PM 53.6 °F 51.8 °F 94% 30.06 in 10.0 mi WNW 4.6 mph - N/A   Clear
11:33 PM 53.6 °F 50.0 °F 88% 30.05 in 10.0 mi WNW 4.6 mph - N/A   Clear
11:54 PM 53.6 °F 50.0 °F 88% 30.05 in 10.0 mi WNW 4.6 mph - N/A   Clear